Weather History for Opa Locka, FL

Change the Weather History Date:

Friday, November 30, 2012

  Actual Average Record
Temperature  
Mean Temperature 73 °F -  
Max Temperature 78 °F 78 °F 88 °F (1948)
Min Temperature 68 °F 65 °F 41 °F (1950)
Cooling Degree Days 8    
Growing Degree Days 23 (Base 50)    
Moisture  
Dew Point 61 °F    
Average Humidity 66    
Maximum Humidity 93    
Minimum Humidity 50    
Precipitation  
Precipitation 0.18 in - - ()
Sea Level Pressure  
Sea Level Pressure 30.16 in    
Wind  
Wind Speed 14 mph (ENE)    
Max Wind Speed 22 mph    
Max Gust Speed 30 mph    
Visibility 10 miles    
Events Rain    
Averages and records for this station are not official NWS values.
T = Trace of Precipitation, MM = Missing Value Source: NWS Daily Summary

Daily Weather History Graph

Daily Weather History Graph

Search for Another Location

Airport:

Trip Planner

Search our weather history database for the weather conditions in past years. The results will help you decide how hot, cold, wet, or windy it might be!

Date:

Astronomy

Nov. 30, 2012 Rise Set
Actual Time 6:50 AM EST 5:29 PM EST
Civil Twilight 6:25 AM EST 5:54 PM EST
Nautical Twilight 5:57 AM EST 6:22 PM EST
Astronomical Twilight 5:29 AM EST 6:50 PM EST
Moon 7:21 PM EST (11/30) 8:21 AM EST (11/30)
Length of Visible Light 11h 28m
Length of Day
10h 38m
Waning Gibbous, 96% of the Moon is Illuminated
Nov 30
Waning Gibbous
Dec 6
Last Quarter
Dec 13
New
Dec 20
First Quarter
Dec 28
Full

Hourly Weather History & Observations

Time (EST) Temp. Dew Point Humidity Pressure Visibility Wind Dir Wind Speed Gust Speed Precip Events Conditions
12:53 AM 72.0 °F 60.1 °F 66% 30.18 in 10.0 mi ENE 16.1 mph 21.9 mph N/A   Mostly Cloudy
1:53 AM 72.0 °F 60.1 °F 66% 30.17 in 10.0 mi ENE 13.8 mph - N/A   Overcast
2:53 AM 72.0 °F 60.1 °F 66% 30.15 in 10.0 mi NE 10.4 mph - N/A   Mostly Cloudy
3:53 AM 72.0 °F 61.0 °F 68% 30.14 in 10.0 mi NE 12.7 mph - N/A   Overcast
4:53 AM 73.0 °F 61.0 °F 66% 30.15 in 10.0 mi ENE 15.0 mph 21.9 mph N/A   Overcast
5:53 AM 73.0 °F 60.1 °F 64% 30.16 in 10.0 mi NE 16.1 mph 21.9 mph N/A   Overcast
6:53 AM 73.0 °F 61.0 °F 66% 30.17 in 10.0 mi ENE 17.3 mph 24.2 mph N/A   Overcast
7:53 AM 73.0 °F 62.1 °F 68% 30.19 in 10.0 mi East 13.8 mph - 0.00 in   Overcast
8:53 AM 71.1 °F 64.0 °F 78% 30.21 in 10.0 mi ENE 11.5 mph - 0.00 in Rain Light Rain
9:53 AM 73.9 °F 57.9 °F 57% 30.22 in 10.0 mi ENE 18.4 mph 26.5 mph 0.00 in   Overcast
10:53 AM 75.0 °F 59.0 °F 57% 30.21 in 10.0 mi ENE 18.4 mph 26.5 mph N/A   Overcast
11:53 AM 75.0 °F 57.9 °F 55% 30.20 in 10.0 mi ENE 19.6 mph - N/A   Mostly Cloudy
12:53 PM 78.1 °F 57.9 °F 50% 30.17 in 10.0 mi East 21.9 mph 29.9 mph N/A   Partly Cloudy
1:53 PM 77.0 °F 57.9 °F 52% 30.14 in 10.0 mi East 19.6 mph 27.6 mph N/A   Scattered Clouds
2:53 PM 77.0 °F 57.0 °F 50% 30.14 in 10.0 mi East 19.6 mph 27.6 mph N/A   Partly Cloudy
3:53 PM 75.0 °F 57.0 °F 53% 30.14 in 10.0 mi ENE 15.0 mph - N/A   Overcast
4:53 PM 73.9 °F 57.9 °F 57% 30.14 in 10.0 mi ENE 11.5 mph - N/A   Overcast
5:53 PM 73.9 °F 57.9 °F 57% 30.14 in 10.0 mi East 10.4 mph - N/A   Mostly Cloudy
6:53 PM 73.9 °F 61.0 °F 64% 30.14 in 10.0 mi NE 9.2 mph - N/A   Overcast
7:53 PM 71.6 °F 64.4 °F 78% 30.14 in 10.0 mi NE 9.2 mph - N/A   Overcast
8:53 PM 71.1 °F 64.9 °F 81% 30.16 in 10.0 mi NE 13.8 mph - 0.01 in   Overcast
9:53 PM 70.0 °F 66.0 °F 87% 30.17 in 10.0 mi NNE 9.2 mph - N/A   Overcast
10:53 PM 68.0 °F 66.0 °F 93% 30.15 in 8.0 mi NNW 5.8 mph - 0.17 in Rain Light Rain
11:53 PM 69.1 °F 66.0 °F 90% 30.16 in 10.0 mi West 3.5 mph - 0.00 in   Overcast